Weather History for Ellensburg, WA

Change the Weather History Date:

Tuesday, January 14, 2014

  Actual Average (KYKM) Record (KYKM)
Temperature  
Mean Temperature 46 °F 31 °F  
Max Temperature 54 °F 38 °F 62 °F (2011)
Min Temperature 37 °F 23 °F -19 °F (1950)
Degree Days  
Heating Degree Days 20 34  
Month to date heating degree days 500  
Since 1 July heating degree days 3163  
Cooling Degree Days 0 0  
Month to date cooling degree days 0  
Year to date cooling degree days 0  
Moisture  
Dew Point 35 °F    
Average Humidity 68    
Maximum Humidity 86    
Minimum Humidity 51    
Precipitation  
Precipitation 0.00 in 0.03 in 0.70 in (1956)
Month to date precipitation 0.58  
Year to date precipitation 0.58  
Snow  
Snow 0.00 in 0.20 in 7.70 in (1956)
Month to date snowfall 3.1  
Year to date snowfall 3.1  
Since 1 July snowfall 16.1  
Snow Depth -    
Sea Level Pressure  
Sea Level Pressure 30.56 in    
Wind  
Wind Speed 7 mph (WNW)    
Max Wind Speed 18 mph    
Max Gust Speed -    
Visibility 10 miles    
Events      
T = Trace of Precipitation, MM = Missing Value Source: NWS Daily Summary

Daily Weather History Graph

Daily Weather History Graph

Search for Another Location

Airport:

Trip Planner

Search our weather history database for the weather conditions in past years. The results will help you decide how hot, cold, wet, or windy it might be!

Date:

Astronomy

Jan. 14, 2014 Rise Set
Actual Time 7:44 AM PST 4:38 PM PST
Civil Twilight 7:09 AM PST 5:13 PM PST
Nautical Twilight 6:31 AM PST 5:51 PM PST
Astronomical Twilight 5:55 AM PST 6:27 PM PST
Moon 3:50 PM PST (1/14) 6:20 AM PST (1/14)
Length of Visible Light 10h 03m
Length of Day
8h 54m
Waxing Gibbous, 98% of the Moon is Illuminated
Jan 14
Waxing Gibbous
Jan 15
Full
Jan 23
Last Quarter
Jan 30
New
Feb 6
First Quarter

Hourly Weather History & Observations

Time (PST) Temp. Windchill Dew Point Humidity Pressure Visibility Wind Dir Wind Speed Gust Speed Precip Events Conditions
12:53 AM 37.0 °F - 33.1 °F 86% 30.59 in 10.0 mi Calm Calm - N/A   Clear
1:53 AM 37.9 °F - 34.0 °F 86% 30.60 in 10.0 mi Calm Calm - N/A   Clear
2:53 AM 39.0 °F 34.0 °F 34.0 °F 82% 30.61 in 10.0 mi NNW 6.9 mph - N/A   Clear
3:53 AM 43.0 °F 35.7 °F 36.0 °F 76% 30.58 in 10.0 mi NW 15.0 mph - N/A   Clear
4:53 AM 43.0 °F 37.2 °F 36.0 °F 76% 30.58 in 10.0 mi WNW 10.4 mph - N/A   Clear
5:53 AM 46.0 °F 40.6 °F 36.0 °F 68% 30.59 in 10.0 mi NW 11.5 mph - N/A   Clear
6:53 AM 43.0 °F 38.2 °F 35.1 °F 74% 30.60 in 10.0 mi NW 8.1 mph - N/A   Clear
7:53 AM 45.0 °F 39.3 °F 36.0 °F 71% 30.60 in 10.0 mi NNW 11.5 mph - N/A   Clear
8:53 AM 46.0 °F 39.3 °F 36.0 °F 68% 30.61 in 10.0 mi NW 16.1 mph - N/A   Clear
9:53 AM 50.0 °F - 37.0 °F 61% 30.61 in 10.0 mi West 6.9 mph - N/A   Clear
10:53 AM 50.0 °F - 37.0 °F 61% 30.60 in 10.0 mi SSE 3.5 mph - N/A   Clear
11:53 AM 50.0 °F - 37.0 °F 61% 30.59 in 10.0 mi SSW 3.5 mph - N/A   Clear
12:53 PM 53.1 °F - 36.0 °F 52% 30.56 in 10.0 mi NW 10.4 mph - N/A   Clear
1:53 PM 54.0 °F - 36.0 °F 51% 30.54 in 10.0 mi West 11.5 mph - N/A   Clear
2:53 PM 51.1 °F - 37.0 °F 59% 30.55 in 10.0 mi NW 3.5 mph - N/A   Clear
3:53 PM 50.0 °F - 36.0 °F 59% 30.55 in 10.0 mi WNW 13.8 mph - N/A   Clear
4:53 PM 46.9 °F - 34.0 °F 61% 30.54 in 10.0 mi WNW 10.4 mph - N/A   Clear
5:53 PM 42.1 °F 37.7 °F 33.1 °F 70% 30.53 in 10.0 mi NW 6.9 mph - N/A   Clear
6:53 PM 46.0 °F 38.8 °F 34.0 °F 63% 30.53 in 10.0 mi NW 18.4 mph - N/A   Clear
7:53 PM 46.9 °F - 33.1 °F 59% 30.53 in 10.0 mi WNW 18.4 mph - N/A   Clear
8:53 PM 42.1 °F 35.7 °F 33.1 °F 70% 30.51 in 10.0 mi WNW 11.5 mph - N/A   Clear
9:53 PM 41.0 °F 35.2 °F 32.0 °F 70% 30.51 in 10.0 mi West 9.2 mph - N/A   Clear
10:53 PM 37.9 °F 32.1 °F 30.9 °F 76% 30.51 in 10.0 mi WNW 8.1 mph - N/A   Clear
11:53 PM 39.0 °F 32.3 °F 30.9 °F 73% 30.49 in 10.0 mi WNW 10.4 mph - N/A   Clear